DW8228 Nauvo FI current weather conditions

sailwx.info

Wind from 145

Air temperature 10.6° C
Dewpoint 10.1° C

Last reported at 2018-Oct-17 02:00 UTC.
Time now 2018-Oct-17 03:02 UTC

Location: N 60°05' E 022°01'.
View on Google Maps.

See reports from other nearby stations

  
Tides and Currents Weather Stations Pressure Air Temp Water Temp Dewpoint Dewpoint Depression Visibility Wind Speed Wind Dir Waves Ship Positions
date/time (UTC)wind fromknots sea level pressurealtimeterstation pressurevisibilityair tempwater tempwave heightnotes
2018-Oct-17 02:00 145 10.6
2018-Oct-17 01:45 170 11.1
2018-Oct-17 01:31 175 11.1
2018-Oct-17 01:15 185 0 gusting 3 11.1
2018-Oct-17 01:00 180 11.1
2018-Oct-17 00:45 180 11.1
2018-Oct-17 00:30 180 11.1
2018-Oct-17 00:15 180 11.1
2018-Oct-17 00:00 175 1 gusting 6 11.1
2018-Oct-16 23:45 171 2 gusting 5 11.1
2018-Oct-16 23:30 185 0 gusting 3 11.1
2018-Oct-16 23:15 132 11.1
2018-Oct-16 23:00 132 11.1
2018-Oct-16 22:45 132 11.1
2018-Oct-16 22:30 132 11.1
2018-Oct-16 22:15 131 11.1
2018-Oct-16 22:00 131 11.1
2018-Oct-16 21:45 130 11.1
2018-Oct-16 21:30 110 0 gusting 6 11.1
2018-Oct-16 21:15 118 0 gusting 2 11.1
2018-Oct-16 21:00 105 11.1
2018-Oct-16 20:45 097 11.1
2018-Oct-16 20:30 103 11.1
2018-Oct-16 20:17 103 11.1
2018-Oct-16 20:15 103 11.1
2018-Oct-16 20:01 104 11.1
2018-Oct-16 20:00 103 11.1
2018-Oct-16 19:46 084 11.1
2018-Oct-16 19:32 073 0 gusting 3 11.1
2018-Oct-16 19:17 047 11.1
2018-Oct-16 19:01 041 0 gusting 2 11.1
2018-Oct-16 18:46 038 11.1
2018-Oct-16 18:31 035 11.1
2018-Oct-16 18:16 058 11.1
2018-Oct-16 18:01 059 11.1
2018-Oct-16 17:46 058 11.1
2018-Oct-16 17:31 060 11.1
2018-Oct-16 17:16 095 11.1
2018-Oct-16 16:46 095 11.1
2018-Oct-16 16:31 074 11.1
2018-Oct-16 16:17 074 11.1
2018-Oct-16 16:00 074 11.1
2018-Oct-16 15:46 074 11.1
2018-Oct-16 15:31 074 11.1
2018-Oct-16 15:16 074 11.7
2018-Oct-16 15:01 074 11.7
2018-Oct-16 14:46 046 12.2
2018-Oct-16 14:31 047 12.2
2018-Oct-16 14:16 040 12.2
2018-Oct-16 14:01 011 12.2
2018-Oct-16 13:45 017 12.2
2018-Oct-16 13:31 053 12.8
2018-Oct-16 13:16 035 12.8
2018-Oct-16 13:01 033 12.8
2018-Oct-16 12:46 013 12.8
2018-Oct-16 12:31 348 0 gusting 6 12.8
2018-Oct-16 12:16 022 1 gusting 6 12.8
2018-Oct-16 12:01 058 13.3
2018-Oct-16 11:45 047 13.3
2018-Oct-16 11:30 068 13.3
2018-Oct-16 11:15 072 1 gusting 3 13.3
2018-Oct-16 11:00 069 13.3
2018-Oct-16 10:46 064 2 gusting 6 13.9
2018-Oct-16 10:31 085 0 gusting 3 13.3
2018-Oct-16 10:15 085 13.3
2018-Oct-16 10:00 077 13.3
2018-Oct-16 09:45 058 1 gusting 5 12.8
2018-Oct-16 09:30 062 12.8
2018-Oct-16 09:15 043 0 gusting 3 12.2
2018-Oct-16 09:00 053 11.7
2018-Oct-16 08:45 010 0 gusting 6 11.1
2018-Oct-16 08:30 020 11.1
2018-Oct-16 08:16 014 2 gusting 8 11.1
2018-Oct-16 08:15 048 2 gusting 8 11.1
2018-Oct-16 08:01 349 11.1
2018-Oct-16 07:46 333 0 gusting 6 11.1
2018-Oct-16 07:31 003 0 gusting 5 10.6
2018-Oct-16 07:17 337 0 gusting 5 10.6
2018-Oct-16 07:01 293 2 gusting 6 10.6
2018-Oct-16 06:46 306 1 gusting 6 10.0
2018-Oct-16 06:31 293 1 gusting 6 10.0
2018-Oct-16 06:16 262 1 gusting 6 10.0
2018-Oct-16 06:02 281 0 gusting 6 10.0
2018-Oct-16 05:46 256 0 gusting 6 10.0
2018-Oct-16 05:31 268 2 gusting 7 10.0
2018-Oct-16 05:16 267 0 gusting 5 10.0
2018-Oct-16 05:01 243 1 gusting 6 10.0
2018-Oct-16 04:46 241 5 gusting 8 10.0
2018-Oct-16 04:31 240 2 gusting 7 10.6
2018-Oct-16 04:16 251 2 gusting 8 10.6
2018-Oct-16 04:01 272 2 gusting 9 10.6
2018-Oct-16 03:46 258 3 gusting 10 10.6
2018-Oct-16 03:31 258 4 gusting 9 10.6
2018-Oct-16 03:16 222 3 gusting 9 11.1
2018-Oct-16 03:01 228 5 gusting 14 11.1
2018-Oct-16 02:45 241 9 gusting 13 11.1
2018-Oct-16 02:30 241 6 gusting 13 11.1
2018-Oct-16 02:15 235 7 gusting 14 11.1
2018-Oct-16 02:00 226 9 gusting 13 11.7
2018-Oct-16 01:45 235 11 gusting 15 11.7
2018-Oct-16 01:30 214 8 gusting 13 11.7
2018-Oct-16 01:16 236 9 gusting 16 11.7
2018-Oct-16 01:00 212 11 gusting 13 11.7
2018-Oct-16 00:45 226 8 gusting 13 11.7
2018-Oct-16 00:30 241 9 gusting 13 11.7
2018-Oct-16 00:15 218 10 gusting 14 11.7
2018-Oct-16 00:00 225 10 gusting 15 11.7
2018-Oct-15 23:45 239 8 gusting 15 11.7
2018-Oct-15 23:30 234 7 gusting 12 11.7
2018-Oct-15 23:15 216 9 gusting 13 11.7
2018-Oct-15 23:00 228 7 gusting 12 11.7
2018-Oct-15 22:45 223 6 gusting 12 11.7
2018-Oct-15 22:30 223 6 gusting 13 11.7
2018-Oct-15 22:15 229 7 gusting 13 11.7
2018-Oct-15 22:00 237 7 gusting 15 11.7
2018-Oct-15 21:48 210 10 gusting 16 11.7
2018-Oct-15 21:45 240 10 gusting 16 11.7
2018-Oct-15 21:31 239 8 gusting 14 11.7
2018-Oct-15 21:16 235 8 gusting 16 11.7
2018-Oct-15 21:01 217 7 gusting 12 11.7
2018-Oct-15 20:46 233 7 gusting 12 11.7
2018-Oct-15 20:31 216 7 gusting 13 11.7
2018-Oct-15 20:16 221 7 gusting 12 11.1
2018-Oct-15 20:01 216 6 gusting 11 11.1
2018-Oct-15 19:46 236 6 gusting 12 11.1
2018-Oct-15 19:30 222 6 gusting 13 11.1
2018-Oct-15 19:15 217 6 gusting 13 11.1
2018-Oct-15 19:01 210 6 gusting 11 11.1
2018-Oct-15 18:46 180 6 gusting 12 11.1
2018-Oct-15 18:31 205 6 gusting 12 11.1
2018-Oct-15 18:15 208 6 gusting 12 11.1
2018-Oct-15 18:00 231 6 gusting 11 11.1
2018-Oct-15 17:46 210 6 gusting 12 11.1
2018-Oct-15 17:30 191 6 gusting 13 11.1
2018-Oct-15 17:15 202 6 gusting 12 11.1
2018-Oct-15 17:01 206 6 gusting 12 11.1
2018-Oct-15 16:46 220 6 gusting 12 11.1
2018-Oct-15 16:30 217 5 gusting 11 11.1
2018-Oct-15 16:15 197 6 gusting 11 11.1
2018-Oct-15 16:00 205 6 gusting 13 11.1
2018-Oct-15 15:45 212 4 gusting 7 11.1
2018-Oct-15 15:30 189 3 gusting 9 11.7
2018-Oct-15 15:00 199 3 gusting 11 12.2
2018-Oct-15 14:45 215 4 gusting 11 12.2
2018-Oct-15 14:30 224 4 gusting 10 12.2
2018-Oct-15 14:15 190 4 gusting 10 12.2
2018-Oct-15 14:00 217 5 gusting 11 12.8
2018-Oct-15 13:45 195 6 gusting 12 12.8
2018-Oct-15 13:30 194 6 gusting 12 13.3
2018-Oct-15 13:15 199 6 gusting 11 13.3
2018-Oct-15 13:00 226 4 gusting 13 13.3
2018-Oct-15 12:45 217 6 gusting 11 13.3
2018-Oct-15 12:30 212 5 gusting 10 13.3
2018-Oct-15 12:15 222 5 gusting 12 13.3
2018-Oct-15 12:00 225 6 gusting 11 13.3
2018-Oct-15 11:45 239 7 gusting 14 12.8
2018-Oct-15 11:30 226 9 gusting 14 12.8
2018-Oct-15 11:16 221 10 gusting 14 12.8
2018-Oct-15 11:03 223 10 gusting 15 12.8
2018-Oct-15 10:46 223 8 gusting 14 12.8
2018-Oct-15 10:31 244 9 gusting 16 12.8
2018-Oct-15 10:17 220 11 gusting 14 12.8
2018-Oct-15 10:01 226 8 gusting 14 12.8
2018-Oct-15 09:46 216 10 gusting 15 12.8
2018-Oct-15 09:31 233 11 gusting 16 12.8
2018-Oct-15 09:16 240 10 gusting 13 12.8
2018-Oct-15 09:01 233 10 gusting 14 12.8
2018-Oct-15 08:46 217 10 gusting 14 12.8
2018-Oct-15 08:31 221 9 gusting 16 12.8
2018-Oct-15 08:16 235 10 gusting 17 12.2
2018-Oct-15 08:01 209 9 gusting 14 12.2
2018-Oct-15 07:46 232 9 gusting 15 12.2
2018-Oct-15 07:31 213 8 gusting 15 12.2
2018-Oct-15 07:16 200 8 gusting 17 12.2
2018-Oct-15 07:01 215 8 gusting 17 12.2
2018-Oct-15 06:47 226 9 gusting 14 11.7
2018-Oct-15 06:31 245 9 gusting 14 11.7
2018-Oct-15 06:16 211 8 gusting 17 11.7
2018-Oct-15 06:01 214 8 gusting 13 11.7
2018-Oct-15 05:46 216 9 gusting 16 11.7
2018-Oct-15 05:30 223 9 gusting 15 11.7
2018-Oct-15 05:15 220 10 gusting 16 11.7
2018-Oct-15 05:00 233 8 gusting 14 11.7
2018-Oct-15 04:46 208 8 gusting 16 11.7
2018-Oct-15 04:31 204 9 gusting 15 11.7
2018-Oct-15 04:15 254 9 gusting 14 12.2
2018-Oct-15 04:00 224 10 gusting 13 12.2
2018-Oct-15 03:45 197 9 gusting 17 12.2
2018-Oct-15 03:30 232 10 gusting 15 12.2
2018-Oct-15 03:15 229 10 gusting 18 12.2
2018-Oct-15 03:01 231 9 gusting 16 12.2